Previsão horária em Juncza

Hoje, 22 Junho, Terça-feira

Tempo Temperatura Precipitação Vento Pressão Humidade
00:00 +21°C° 0 mm 1 m/s 743 mmHg 89%
01:00 +21°C° 0 mm 1 m/s 743 mmHg 88%
02:00 +21°C° 0.1 mm 1 m/s 743 mmHg 90%
03:00 +21°C° 0.1 mm 1 m/s 744 mmHg 91%
04:00 +20°C° 0.1 mm 1 m/s 744 mmHg 93%
05:00 +22°C° 0.2 mm 1 m/s 744 mmHg 88%
06:00 +23°C° 0.2 mm 1 m/s 744 mmHg 83%
07:00 +24°C° 0.2 mm 2 m/s 745 mmHg 78%
08:00 +26°C° 0 mm 2 m/s 745 mmHg 71%
09:00 +27°C° 0 mm 2 m/s 745 mmHg 64%
10:00 +29°C° 0 mm 3 m/s 745 mmHg 57%
11:00 +28°C° 0.2 mm 3 m/s 746 mmHg 57%
12:00 +28°C° 0.2 mm 4 m/s 746 mmHg 57%
13:00 +28°C° 0.2 mm 4 m/s 746 mmHg 58%
14:00 +27°C° 0.2 mm 4 m/s 746 mmHg 60%
15:00 +27°C° 0.2 mm 4 m/s 747 mmHg 61%
16:00 +26°C° 0.2 mm 4 m/s 747 mmHg 63%
17:00 +23°C° 0.1 mm 4 m/s 747 mmHg 67%
18:00 +22°C° 0.1 mm 4 m/s 748 mmHg 70%
19:00 +20°C° 0.1 mm 4 m/s 748 mmHg 73%
20:00 +19°C° 0 mm 3 m/s 749 mmHg 75%
21:00 +17°C° 0 mm 3 m/s 749 mmHg 76%
22:00 +16°C° 0 mm 2 m/s 750 mmHg 77%
23:00 +15°C° 0 mm 2 m/s 750 mmHg 78%

Amanhã, 23 Junho, Quarta-feira

Tempo Temperatura Precipitação Vento Pressão Humidade
00:00 +15°C° 0 mm 2 m/s 750 mmHg 78%
01:00 +14°C° 0 mm 2 m/s 750 mmHg 79%
02:00 +14°C° 0 mm 2 m/s 750 mmHg 79%
03:00 +14°C° 0 mm 2 m/s 750 mmHg 80%
04:00 +14°C° 0 mm 2 m/s 750 mmHg 80%
05:00 +15°C° 0 mm 2 m/s 750 mmHg 74%
06:00 +17°C° 0 mm 2 m/s 750 mmHg 68%
07:00 +18°C° 0 mm 2 m/s 751 mmHg 62%
08:00 +20°C° 0 mm 2 m/s 751 mmHg 55%
09:00 +23°C° 0 mm 2 m/s 751 mmHg 48%
10:00 +25°C° 0 mm 2 m/s 751 mmHg 41%
11:00 +26°C° 0 mm 2 m/s 751 mmHg 39%
12:00 +27°C° 0 mm 2 m/s 751 mmHg 37%
13:00 +28°C° 0 mm 1 m/s 751 mmHg 35%
14:00 +28°C° 0 mm 2 m/s 751 mmHg 39%
15:00 +27°C° 0 mm 2 m/s 751 mmHg 42%
16:00 +26°C° 0 mm 2 m/s 751 mmHg 46%
17:00 +25°C° 0.1 mm 2 m/s 751 mmHg 54%
18:00 +23°C° 0.1 mm 2 m/s 751 mmHg 63%
19:00 +21°C° 0.1 mm 2 m/s 752 mmHg 71%
20:00 +19°C° 0.1 mm 2 m/s 752 mmHg 78%
21:00 +18°C° 0.1 mm 2 m/s 752 mmHg 84%
22:00 +16°C° 0.1 mm 2 m/s 752 mmHg 91%
23:00 +16°C° 0.1 mm 1 m/s 752 mmHg 91%

Depois de amanhã, 24 Junho, Quinta-feira

Tempo Temperatura Precipitação Vento Pressão Humidade
00:00 +16°C° 0.1 mm 1 m/s 752 mmHg 91%
01:00 +15°C° 0.1 mm 1 m/s 752 mmHg 91%
02:00 +15°C° 0 mm 1 m/s 752 mmHg 90%
03:00 +15°C° 0 mm 1 m/s 752 mmHg 89%
04:00 +16°C° 0 mm 1 m/s 752 mmHg 89%
05:00 +18°C° 0 mm 1 m/s 752 mmHg 84%
06:00 +19°C° 0 mm 1 m/s 752 mmHg 80%
07:00 +18°C° 0 mm 0 m/s 752 mmHg 75%
08:00 +19°C° 0 mm 0 m/s 752 mmHg 70%
09:00 +21°C° 0 mm 0 m/s 752 mmHg 64%
10:00 +22°C° 0 mm 0 m/s 752 mmHg 59%
11:00 +25°C° 0 mm 1 m/s 751 mmHg 55%
12:00 +26°C° 0 mm 1 m/s 751 mmHg 51%
13:00 +28°C° 0 mm 1 m/s 751 mmHg 47%
14:00 +28°C° 0 mm 1 m/s 751 mmHg 48%
15:00 +27°C° 0 mm 1 m/s 750 mmHg 49%
16:00 +27°C° 0 mm 1 m/s 750 mmHg 50%
17:00 +26°C° 0 mm 2 m/s 750 mmHg 56%
18:00 +25°C° 0 mm 2 m/s 750 mmHg 61%
19:00 +24°C° 0 mm 2 m/s 750 mmHg 67%
20:00 +21°C° 0 mm 2 m/s 750 mmHg 72%
21:00 +19°C° 0 mm 2 m/s 750 mmHg 76%
22:00 +17°C° 0 mm 2 m/s 750 mmHg 81%
23:00 +17°C° 0 mm 2 m/s 750 mmHg 81%

25 Junho, Sexta-feira

Tempo Temperatura Precipitação Vento Pressão Humidade
00:00 +16°C° 0 mm 2 m/s 749 mmHg 81%
01:00 +16°C° 0 mm 2 m/s 749 mmHg 82%
02:00 +16°C° 0 mm 2 m/s 749 mmHg 82%
03:00 +16°C° 0 mm 2 m/s 749 mmHg 82%
04:00 +16°C° 0 mm 2 m/s 748 mmHg 82%
05:00 +16°C° 0.4 mm 2 m/s 748 mmHg 84%
06:00 +17°C° 0.4 mm 2 m/s 748 mmHg 87%
07:00 +17°C° 0.4 mm 2 m/s 748 mmHg 89%
08:00 +17°C° 0.6 mm 2 m/s 748 mmHg 90%
09:00 +17°C° 0.6 mm 3 m/s 748 mmHg 92%
10:00 +17°C° 0.6 mm 3 m/s 748 mmHg 93%
11:00 +17°C° 0.6 mm 3 m/s 748 mmHg 93%
12:00 +15°C° 0.6 mm 4 m/s 748 mmHg 94%
13:00 +15°C° 0.6 mm 4 m/s 748 mmHg 94%
14:00 +15°C° 0.3 mm 4 m/s 748 mmHg 93%
15:00 +15°C° 0.3 mm 4 m/s 748 mmHg 93%
16:00 +16°C° 0.3 mm 3 m/s 748 mmHg 93%
17:00 +15°C° 0 mm 4 m/s 748 mmHg 92%
18:00 +15°C° 0 mm 4 m/s 748 mmHg 91%
19:00 +15°C° 0 mm 4 m/s 748 mmHg 90%
20:00 +15°C° 0.1 mm 4 m/s 748 mmHg 91%
21:00 +15°C° 0.1 mm 4 m/s 748 mmHg 92%
22:00 +15°C° 0.1 mm 5 m/s 748 mmHg 93%
23:00 +15°C° 0 mm 4 m/s 748 mmHg 93%

26 Junho, Sábado

Tempo Temperatura Precipitação Vento Pressão Humidade
00:00 +15°C° 0 mm 4 m/s 748 mmHg 93%
01:00 +15°C° 0 mm 4 m/s 748 mmHg 93%
02:00 +15°C° 0 mm 4 m/s 748 mmHg 93%
03:00 +14°C° 0 mm 4 m/s 748 mmHg 93%
04:00 +14°C° 0 mm 4 m/s 748 mmHg 93%
05:00 +15°C° 0 mm 5 m/s 748 mmHg 93%
06:00 +15°C° 0 mm 5 m/s 748 mmHg 93%
07:00 +15°C° 0 mm 5 m/s 748 mmHg 93%
08:00 +15°C° 0.1 mm 5 m/s 748 mmHg 92%
09:00 +15°C° 0.1 mm 5 m/s 749 mmHg 91%
10:00 +16°C° 0.1 mm 5 m/s 749 mmHg 89%
11:00 +16°C° 0.1 mm 5 m/s 749 mmHg 87%
12:00 +16°C° 0.1 mm 5 m/s 749 mmHg 84%
13:00 +17°C° 0.1 mm 5 m/s 749 mmHg 82%
14:00 +17°C° 0 mm 5 m/s 749 mmHg 80%
15:00 +17°C° 0 mm 5 m/s 749 mmHg 77%
16:00 +19°C° 0 mm 4 m/s 749 mmHg 75%
17:00 +18°C° 0 mm 4 m/s 749 mmHg 78%
18:00 +18°C° 0 mm 4 m/s 749 mmHg 80%
19:00 +17°C° 0 mm 3 m/s 749 mmHg 83%
20:00 +17°C° 0 mm 3 m/s 749 mmHg 85%
21:00 +16°C° 0 mm 3 m/s 749 mmHg 88%
22:00 +14°C° 0 mm 3 m/s 749 mmHg 90%
23:00 +14°C° 0 mm 3 m/s 749 mmHg 92%

27 Junho, Domingo

Tempo Temperatura Precipitação Vento Pressão Humidade
00:00 +14°C° 0 mm 2 m/s 749 mmHg 94%
01:00 +14°C° 0 mm 2 m/s 749 mmHg 96%
02:00 +14°C° 0 mm 2 m/s 749 mmHg 96%
03:00 +14°C° 0 mm 2 m/s 750 mmHg 96%
04:00 +13°C° 0 mm 2 m/s 750 mmHg 97%
05:00 +15°C° 0 mm 2 m/s 750 mmHg 91%
06:00 +17°C° 0 mm 3 m/s 750 mmHg 86%
07:00 +18°C° 0 mm 3 m/s 750 mmHg 80%
08:00 +19°C° 0 mm 3 m/s 750 mmHg 76%
09:00 +20°C° 0 mm 3 m/s 750 mmHg 72%
10:00 +21°C° 0 mm 3 m/s 750 mmHg 68%
11:00 +22°C° 0 mm 3 m/s 750 mmHg 64%
12:00 +23°C° 0 mm 4 m/s 750 mmHg 60%
13:00 +25°C° 0 mm 4 m/s 750 mmHg 55%
14:00 +24°C° 0 mm 3 m/s 750 mmHg 56%
15:00 +24°C° 0 mm 3 m/s 750 mmHg 56%
16:00 +24°C° 0 mm 3 m/s 750 mmHg 57%
17:00 +23°C° 0.1 mm 2 m/s 750 mmHg 62%
18:00 +23°C° 0.1 mm 2 m/s 750 mmHg 68%
19:00 +21°C° 0.1 mm 2 m/s 750 mmHg 74%
20:00 +19°C° 0 mm 2 m/s 750 mmHg 80%
21:00 +18°C° 0 mm 2 m/s 750 mmHg 87%
22:00 +17°C° 0 mm 2 m/s 751 mmHg 93%
23:00 +16°C° 0 mm 2 m/s 751 mmHg 94%
Mostrar mais

Necessitamos do seu Consentimento

A Meteoprog e os seus Fornecedores de Serviços podem armazenar e aceder a dados pessoais como cookies, identificadores do dispositivo ou outras tecnologias semelhantes existentes no seu dispositivo e processar estes dados para personalizar conteúdos e anúncios, assim como funcionalidades nas redes sociais e análise de tráfego.

  • Armazenar e/ou aceder a informações no seu dispositivo

    Os cookies, identificadores do dispositivo ou outras informações podem ser armazenados ou acedidos no seu dispositivo, para os fins acima indicados.

  • Anúncios e conteúdos personalizados, medição de anúncios e conteúdos, dados sobre o público-alvo e desenvolvimento de produtos

    Os anúncios e os conteúdos podem ser personalizados com base num perfil. Podem ser adicionados dados adicionais para uma maior personalização dos anúncios e dos conteúdos. A eficácia dos anúncios e dos conteúdos pode ser medida. Podem ser obtidas informações sobre o público que visualizou os anúncios e os conteúdos. Estes dados podem ser usados para desenvolver ou melhorar sistemas, softwares ou a experiência do utilizador.

Ao clicar em "Eu concordo”, permitirá o uso de cookies, identificadores do dispositivo e web beacons mencionados ou outras tecnologias semelhantes. As configurações do navegador do seu dispositivo podem ser alteradas.

Para certos fins, podem ser invocados interesses legítimos ao invés de consentimento. Pode ler mais informação sobre este assunto na nossa Política de Privacidade e Cookies.